Location: Turtle Rock Observatory
(36.6913°N, 81.9708°W)
Time: 04:45:58
(UTC-04:00)

Lacrosse 5 rocket - Visible Passes

Search period start: 24 July 2016 00:00
Search period end: 03 August 2016 00:00
Orbit: 469 x 637 km, 57.0° (Epoch: 19 July)

Date Brightness Start Highest point End Pass type
(mag) Time Alt. Az. Time Alt. Az. Time Alt. Az.
24 Jul 4.2 02:02:21 14° N 02:02:21 14° N 02:03:02 10° NNE visible
25 Jul 4.3 01:57:54 13° N 01:57:54 13° N 01:58:33 10° N visible
26 Jul 4.4 01:53:23 12° N 01:53:23 12° N 01:53:56 10° N visible
27 Jul 4.4 01:48:45 10° NNW 01:48:45 10° NNW 01:48:53 10° NNW visible
29 Jul 4.1 00:03:13 11° NNE 00:03:13 11° NNE 00:03:27 10° NNE visible
29 Jul 3.7 23:57:31 19° N 23:57:31 19° N 23:59:06 10° NNE visible
30 Jul 1.4 22:08:39 10° SSW 22:12:28 42° SE 22:16:06 10° NE visible
30 Jul 3.7 23:48:53 10° W 23:51:48 20° NW 23:54:39 10° N visible
31 Jul 1.1 22:04:17 10° SSW 22:08:16 64° SE 22:12:03 10° NE visible
31 Jul 4.2 23:45:25 10° WNW 23:47:47 15° NW 23:50:05 10° N visible
01 Aug 4.4 04:49:20 10° N 04:51:01 13° NNE 04:52:41 10° ENE visible
01 Aug 1.1 22:00:03 10° SW 22:04:05 86° NW 22:07:55 10° NE visible
01 Aug 4.5 23:42:16 10° NW 23:43:46 12° NNW 23:45:18 10° N visible
02 Aug 4.2 04:44:37 10° N 04:47:00 16° NE 04:49:25 10° ENE visible
02 Aug 1.8 21:55:57 10° SW 21:59:55 58° NW 22:03:42 10° NNE visible
